Location: Baumgarten
(49.0970°N, 12.7493°E)
Time: 02:58:39
(UTC+00:00)

CZ-4C R/B - Pass Details

Date: 05 July 2020
Orbit: 632 x 1369 km, 63.4° (Epoch: 04 August)

Event Time Altitude Azimuth Distance (km) Brightness Sun altitude
Rises 23:24:59 0° 317° (NW) 3,738 6.2 -18.2°
Reaches altitude 10° 23:27:26 10° 320° (NW) 2,886 5.6 -18.2°
Maximum altitude 23:34:27 75° 46° (NE) 1,242 3.1 -18.1°
Drops below altitude 10° 23:42:38 10° 131° (SE) 3,340 5.0 -18.0°
Enters shadow 23:45:18 - 133° (SE) 4,240 5.5 -17.9°
